Weather in Krupoderyntsi

Ukraine / Poltava Region     49°55′16″N   32°30′00″E
temp.,
°C
wind,
m/s
gust,
m/s
humid.,
%
clouds,
%
prec.,
mm/h
press.,
hPa
HPBL,
m
7 may, fri
fri700:00+7wsw33885 0.1 101340
03:00+6wnw228090 0.1 101424
06:00+6w22780 0.0 101411
09:00+11s2260100 0.0 1015328
12:00+15ssw5748100 0.0 10141707
15:00+17s694790 0.0 10122098
18:00+14sse4865100 0.2 1010171
21:00+13s51477100 0.3 1009601
8 may, sat
sat800:00+13ssw81587100 4.0 1008734
03:00+12s51391100 4.5 1006591
06:00+11sw61394100 3.1 1005700
09:00+10wnw51094100 3.9 1007751
12:00+11wnw7107394 0.3 10101179
15:00+12w8115297 0.3 10112060
18:00+10wnw810625 0.0 10131619
21:00+6nw49796 0.0 1016359
9 may, sun
sun900:00+5wnw512835 0.0 1018368
03:00+4nw511890 0.0 1019279
06:00+3nw411880 0.0 1022310
09:00+9nw58670 0.0 1023745
12:00+12nw795626 0.2 10241789
15:00+14nw794794 0.8 10242548
18:00+13nnw47545 0.0 10252303
21:00+8nne337048 0.0 102727
10 may, mon
mon1000:00+6n226724 0.0 102813
03:00+5nne22688 0.0 102910
06:00+5ne22725 0.0 103015
09:00+11ne23555 0.0 1030469
12:00+14nne34440 0.0 10301427
15:00+15nne56430 0.0 10281584
18:00+15nne57550 0.0 10281465
21:00+9nne35730 0.0 102861
11 may, tue
tue1100:00+7nne34800 0.0 102856
03:00+6nne48830 0.0 1028123
06:00+6nne410830 0.0 1027198
09:00+12ne58600 0.0 1026517
12:00+16ne56490 0.0 1025965
15:00+18ne56490 0.0 10241134
18:00+18ne57630 0.0 10231200
21:00+12ene478511 0.0 1023109